z/d,0,0,50,50,100,100,150,150,200,200,300,300,400,400,500,500,600,600,750,750,1000,1000,1250,1250,1500,1500,1750,1750,1900,1900,2000,2000
2019.02.13-01:00,2.12,267.92,2.14,270.55,2.13,275.29,2.12,273.72,2.02,270.00,1.90,274.46,1.86,273.75,1.81,276.49,1.70,276.95,1.65,273.93,1.38,273.35,.93,269.02,.59,266.50,.29,281.99,.24,285.69,.09,279.91
2019.02.13-02:00,2.19,267.81,2.20,269.75,2.15,274.74,2.15,274.62,2.10,271.16,1.90,275.73,1.87,275.04,1.79,277.85,1.67,279.16,1.62,275.01,1.34,274.25,.92,267.27,.57,265.01,.24,281.51,.18,287.57,.08,277.62
2019.02.13-03:00,2.29,268.85,2.28,269.46,2.18,273.99,2.18,275.60,2.16,273.12,1.89,276.50,1.87,276.02,1.79,278.89,1.64,280.82,1.59,275.68,1.31,274.69,.92,265.80,.57,263.70,.20,277.06,.13,283.60,.07,268.22
2019.02.13-04:00,2.40,270.79,2.38,270.05,2.24,273.28,2.21,276.55,2.21,275.07,1.89,276.43,1.87,276.94,1.78,279.61,1.64,281.18,1.58,275.69,1.29,274.28,.94,264.55,.58,263.02,.17,267.72,.09,266.64,.07,253.95
2019.02.13-05:00,2.49,273.74,2.47,272.30,2.32,273.27,2.22,277.62,2.23,276.74,1.90,275.92,1.86,278.04,1.77,280.18,1.65,280.36,1.57,275.24,1.28,272.90,.96,263.23,.60,262.65,.17,254.18,.09,235.92,.07,239.34
2019.02.13-06:00,2.52,276.69,2.52,275.47,2.36,273.92,2.18,278.02,2.21,277.76,1.90,275.40,1.83,279.02,1.74,280.86,1.67,279.35,1.57,274.86,1.30,271.15,1.00,262.05,.63,262.68,.21,243.99,.14,221.94,.09,230.81
2019.02.13-07:00,2.41,278.96,2.43,278.61,2.29,275.54,2.09,278.26,2.12,278.39,1.90,275.62,1.80,279.78,1.70,281.76,1.69,279.08,1.58,275.13,1.35,269.98,1.06,261.50,.68,263.13,.27,240.34,.21,221.58,.11,227.54
2019.02.13-08:00,2.23,280.28,2.27,280.65,2.17,277.14,1.99,278.34,2.01,278.31,1.90,276.52,1.79,280.65,1.68,282.70,1.70,279.65,1.61,276.11,1.42,270.06,1.13,261.80,.74,264.20,.34,240.61,.29,223.79,.13,226.74
2019.02.13-09:00,2.11,280.46,2.13,280.51,2.10,277.05,1.94,276.94,1.96,276.82,1.90,276.48,1.77,281.21,1.65,282.76,1.71,280.05,1.63,277.49,1.46,271.41,1.16,263.09,.75,266.41,.39,243.20,.34,226.23,.15,227.29
2019.02.13-10:00,2.05,279.91,2.05,278.66,2.11,275.62,1.94,274.45,1.95,274.55,1.89,275.45,1.72,281.07,1.61,281.76,1.71,280.04,1.66,278.96,1.48,273.56,1.18,265.10,.75,269.69,.40,248.24,.37,230.18,.15,229.44
2019.02.13-11:00,2.09,279.21,2.12,276.12,2.22,274.78,2.04,272.51,2.04,272.79,1.95,274.65,1.72,280.39,1.66,280.44,1.79,279.96,1.76,280.44,1.56,276.32,1.25,268.37,.80,274.45,.47,259.69,.43,243.29,.16,239.79
2019.02.13-12:00,1.93,277.04,2.06,273.21,2.13,273.75,1.97,270.41,1.98,270.85,1.83,273.83,1.57,279.20,1.55,278.89,1.69,279.33,1.68,281.29,1.45,277.86,1.15,269.30,.67,276.31,.36,260.88,.35,238.53,.13,233.73
2019.02.13-13:00,1.92,274.91,2.12,272.08,2.14,273.61,2.02,270.05,2.02,270.58,1.82,274.57,1.55,278.47,1.56,277.98,1.70,278.89,1.73,282.10,1.46,279.40,1.17,271.54,.66,277.92,.35,266.55,.35,244.19,.12,237.52
2019.02.13-14:00,1.91,274.06,2.16,271.99,2.15,274.03,2.05,270.43,2.02,271.12,1.76,275.49,1.50,277.71,1.55,277.36,1.70,278.68,1.74,282.95,1.45,280.58,1.17,273.82,.65,278.45,.32,268.32,.34,246.13,.11,237.68
2019.02.13-15:00,1.95,274.77,2.20,272.61,2.17,274.88,2.09,271.65,2.01,272.33,1.70,275.79,1.47,276.04,1.54,276.47,1.69,278.52,1.73,283.34,1.43,281.03,1.17,275.95,.64,278.38,.28,265.84,.32,245.83,.11,236.17
2019.02.13-16:00,1.98,276.08,2.23,274.21,2.19,276.18,2.12,273.82,2.00,273.97,1.65,275.32,1.45,273.46,1.54,275.22,1.68,278.10,1.70,282.91,1.40,280.94,1.16,278.16,.63,279.25,.26,262.72,.31,246.63,.11,236.25
2019.02.13-17:00,1.99,278.70,2.23,277.52,2.17,278.92,2.10,277.33,1.96,276.26,1.61,274.67,1.45,271.02,1.52,273.91,1.65,277.17,1.64,281.63,1.38,280.48,1.15,280.38,.63,281.32,.24,261.08,.29,249.55,.11,238.75
2019.02.13-18:00,2.02,280.06,2.26,279.81,2.14,280.23,2.06,279.46,1.93,277.12,1.60,272.77,1.49,268.36,1.54,272.21,1.66,275.22,1.59,279.05,1.38,278.62,1.15,280.99,.64,282.06,.26,258.84,.30,253.22,.11,243.02
2019.02.13-19:00,2.07,280.71,2.27,281.24,2.08,280.01,1.98,279.85,1.88,276.54,1.61,270.53,1.53,266.65,1.56,271.02,1.65,273.35,1.53,276.50,1.38,276.40,1.13,280.71,.61,281.89,.27,255.66,.30,255.39,.11,246.86
2019.02.13-20:00,2.15,281.63,2.28,282.51,2.02,279.10,1.91,279.17,1.85,275.59,1.64,269.11,1.58,266.95,1.58,270.75,1.64,272.15,1.49,275.10,1.37,274.94,1.09,280.57,.57,280.64,.28,252.78,.30,257.11,.12,251.16
2019.02.13-21:00,2.19,281.88,2.24,282.79,1.94,276.65,1.83,277.01,1.82,274.24,1.68,267.89,1.63,268.10,1.60,270.46,1.63,271.28,1.46,273.95,1.36,273.70,1.06,279.54,.54,275.57,.32,248.07,.32,255.29,.13,252.68
2019.02.13-22:00,2.08,281.67,2.09,282.42,1.84,273.96,1.73,274.92,1.76,273.48,1.71,267.80,1.65,269.95,1.61,271.12,1.61,272.04,1.43,273.59,1.33,274.08,1.03,279.54,.53,271.30,.36,247.01,.34,255.52,.13,254.74
2019.02.13-23:00,2.04,278.89,2.02,280.01,1.89,271.05,1.78,272.61,1.80,272.33,1.77,267.55,1.66,270.81,1.62,271.62,1.58,273.07,1.39,272.51,1.30,275.18,1.00,279.55,.52,266.22,.40,246.24,.36,254.77,.14,255.20
2019.02.13-24:00,2.04,275.68,2.01,277.13,2.02,270.57,1.90,272.51,1.86,272.43,1.81,267.60,1.67,271.62,1.60,272.42,1.53,274.02,1.35,271.37,1.23,277.06,.94,280.14,.52,262.66,.41,247.05,.35,255.02,.13,256.33
2019.02.14-01:00,2.07,273.40,2.06,275.04,2.12,272.38,2.00,274.21,1.91,273.38,1.85,268.29,1.67,272.71,1.57,273.32,1.48,274.21,1.33,270.39,1.18,278.34,.88,279.89,.53,260.35,.42,249.60,.35,255.87,.13,257.05
2019.02.14-02:00,2.10,273.21,2.12,274.72,2.17,275.18,2.05,276.60,1.91,274.40,1.87,269.98,1.67,274.17,1.54,274.45,1.44,274.03,1.30,269.72,1.13,278.37,.83,278.07,.56,259.16,.43,252.79,.34,256.74,.12,256.68
2019.02.14-03:00,2.16,274.21,2.19,275.35,2.24,277.34,2.10,278.57,1.92,275.15,1.89,272.88,1.67,276.16,1.51,276.21,1.42,274.44,1.30,269.61,1.09,277.15,.79,274.36,.58,258.88,.43,256.27,.33,258.00,.11,255.42
2019.02.14-04:00,2.27,274.83,2.29,275.57,2.33,278.33,2.16,279.30,1.93,275.56,1.89,276.16,1.67,278.24,1.47,278.01,1.41,275.13,1.29,269.67,1.06,274.75,.78,269.18,.61,257.98,.43,258.22,.34,258.44,.10,252.46
2019.02.14-05:00,2.42,275.00,2.44,275.78,2.41,278.72,2.25,279.50,1.96,276.20,1.87,278.69,1.65,279.69,1.44,279.36,1.40,275.72,1.28,269.83,1.03,271.79,.79,264.30,.63,256.87,.43,259.52,.33,259.07,.10,248.69
2019.02.14-06:00,2.53,275.74,2.55,276.90,2.44,279.29,2.34,280.20,2.00,277.31,1.83,279.90,1.63,280.47,1.41,279.88,1.39,275.78,1.27,269.63,1.02,268.77,.82,260.81,.66,256.96,.43,261.95,.33,261.24,.10,247.13
2019.02.14-07:00,2.53,276.84,2.54,278.06,2.36,279.43,2.33,280.90,2.01,278.31,1.79,278.92,1.61,280.84,1.40,279.12,1.38,274.81,1.26,268.82,1.02,266.02,.86,258.82,.69,258.30,.43,264.72,.33,263.45,.10,246.57
2019.02.14-08:00,2.38,276.59,2.38,277.88,2.19,277.89,2.17,280.71,1.97,278.62,1.77,276.61,1.58,280.83,1.39,277.49,1.37,273.19,1.27,268.03,1.05,264.54,.91,258.63,.73,260.99,.45,267.86,.35,265.78,.11,248.09
2019.02.14-09:00,2.21,275.02,2.20,276.69,2.05,275.23,2.02,279.64,1.91,277.86,1.78,274.89,1.55,280.55,1.40,275.87,1.36,271.27,1.28,267.37,1.08,264.34,.95,259.67,.74,264.31,.45,271.03,.35,267.87,.11,250.67
2019.02.14-10:00,2.09,273.06,2.07,275.71,1.96,272.97,1.91,278.68,1.85,276.65,1.79,274.58,1.54,280.92,1.43,275.14,1.37,269.72,1.28,266.96,1.10,265.38,.98,261.52,.73,267.36,.43,273.33,.34,268.73,.10,251.89
2019.02.14-11:00,2.03,270.92,1.98,274.94,1.94,271.19,1.84,276.98,1.81,275.06,1.80,274.97,1.53,281.63,1.46,275.14,1.38,269.14,1.28,266.85,1.12,267.57,.99,263.89,.70,269.56,.41,274.25,.32,267.78,.10,250.91
2019.02.14-12:00,2.02,269.58,1.96,273.72,1.99,270.32,1.82,274.26,1.81,273.17,1.81,275.64,1.51,281.98,1.48,275.33,1.40,269.79,1.28,267.37,1.12,270.58,.98,266.81,.66,271.35,.37,274.53,.28,265.73,.09,248.72
2019.02.14-13:00,2.09,268.56,1.98,272.33,2.06,271.03,1.84,271.77,1.83,271.68,1.83,276.46,1.51,281.50,1.48,275.25,1.42,270.98,1.29,268.46,1.10,273.62,.95,269.89,.61,273.01,.32,273.92,.23,261.87,.08,244.89
2019.02.14-14:00,2.19,267.90,2.04,271.87,2.12,271.96,1.91,270.17,1.88,270.99,1.84,277.72,1.50,280.45,1.48,274.88,1.44,271.97,1.28,269.81,1.08,276.01,.91,272.79,.57,274.89,.26,272.36,.19,255.81,.07,239.84
2019.02.14-15:00,2.25,267.75,2.09,272.67,2.13,272.59,1.98,269.85,1.92,270.89,1.82,279.05,1.49,279.34,1.48,274.46,1.45,272.73,1.29,271.41,1.06,277.51,.88,275.32,.54,277.65,.22,271.12,.15,248.47,.06,234.68
2019.02.14-16:00,2.27,269.25,2.12,273.59,2.13,274.81,2.03,271.27,1.92,271.25,1.75,279.75,1.45,278.08,1.47,273.86,1.47,273.26,1.31,272.95,1.06,277.55,.85,276.47,.51,280.05,.19,267.01,.13,236.80,.05,226.95
2019.02.14-17:00,2.33,272.49,2.18,273.91,2.13,276.94,2.08,273.66,1.94,271.98,1.66,279.28,1.41,276.01,1.46,272.65,1.48,273.61,1.32,274.60,1.07,277.20,.82,276.61,.48,281.46,.18,259.57,.14,224.65,.06,218.87
2019.02.14-18:00,2.44,275.97,2.31,274.54,2.17,276.30,2.12,275.58,1.98,272.51,1.61,277.81,1.40,273.04,1.46,271.00,1.46,273.76,1.30,276.38,1.08,277.47,.80,276.64,.44,281.47,.18,251.12,.15,216.50,.06,213.81
2019.02.14-19:00,2.49,277.93,2.43,276.37,2.23,274.41,2.14,276.61,2.05,273.16,1.61,276.65,1.42,270.25,1.47,269.79,1.43,273.88,1.27,277.80,1.07,277.57,.77,276.62,.39,279.05,.19,243.27,.18,213.18,.07,212.65
2019.02.14-20:00,2.44,279.42,2.43,279.22,2.23,273.10,2.11,277.12,2.09,274.52,1.61,275.94,1.45,268.20,1.49,269.39,1.41,273.93,1.23,278.29,1.07,276.78,.76,275.93,.37,273.41,.23,240.06,.23,217.34,.09,217.48
2019.02.14-21:00,2.33,281.05,2.32,281.09,2.18,272.79,2.02,277.07,2.05,276.00,1.59,275.27,1.50,267.34,1.52,270.04,1.40,274.14,1.22,277.94,1.07,275.36,.75,274.59,.37,266.41,.28,240.77,.28,224.32,.10,224.36
2019.02.14-22:00,2.25,281.12,2.25,281.15,2.17,272.77,1.98,275.70,2.01,276.68,1.61,274.18,1.57,267.78,1.55,271.23,1.40,274.29,1.21,276.94,1.07,273.57,.76,273.17,.39,260.09,.32,242.72,.33,230.34,.12,229.94
2019.02.14-23:00,2.13,280.79,2.12,281.02,2.13,272.69,1.94,273.73,1.93,276.99,1.62,273.18,1.63,269.65,1.59,272.58,1.42,274.44,1.23,275.77,1.09,272.08,.79,271.93,.42,255.64,.36,246.63,.37,237.35,.13,235.97
2019.02.14-24:00,2.05,280.10,2.04,280.27,2.11,272.46,1.97,271.89,1.90,276.76,1.66,272.33,1.70,272.42,1.64,274.42,1.46,275.35,1.25,275.22,1.10,271.22,.81,271.44,.46,252.21,.39,249.95,.39,242.69,.13,240.44
2019.02.15-01:00,2.03,279.11,2.02,279.16,2.15,272.78,2.06,271.07,1.88,276.34,1.70,272.21,1.72,275.05,1.66,276.68,1.48,277.32,1.26,274.94,1.10,270.71,.82,271.21,.50,249.86,.41,253.15,.40,247.51,.13,244.85
2019.02.15-02:00,2.02,277.59,2.01,277.73,2.19,273.52,2.14,271.04,1.87,275.64,1.73,272.81,1.70,276.84,1.64,278.90,1.46,279.71,1.25,274.35,1.09,270.41,.80,270.67,.54,249.37,.43,256.98,.41,252.75,.13,249.93
2019.02.15-03:00,2.06,275.97,2.04,276.48,2.23,274.40,2.21,271.79,1.87,274.90,1.75,273.76,1.68,277.83,1.60,280.65,1.42,281.38,1.24,273.13,1.07,269.97,.77,269.49,.58,250.68,.43,261.53,.41,258.54,.12,255.83
2019.02.15-04:00,2.11,275.17,2.07,275.75,2.26,275.43,2.28,273.66,1.91,274.64,1.78,274.83,1.66,278.56,1.56,281.54,1.37,281.40,1.25,271.34,1.06,268.83,.74,267.48,.60,253.12,.42,266.37,.38,264.63,.11,261.77
2019.02.15-05:00,2.19,275.44,2.13,275.80,2.30,276.70,2.32,276.45,1.97,275.19,1.81,276.01,1.64,279.27,1.52,281.70,1.34,280.02,1.27,269.55,1.05,266.86,.73,264.44,.61,255.61,.39,270.46,.34,270.01,.10,266.08
2019.02.15-06:00,2.25,275.36,2.21,275.65,2.31,277.14,2.31,278.67,2.04,275.92,1.83,276.93,1.62,279.82,1.48,281.51,1.32,278.09,1.30,268.49,1.06,264.75,.74,261.33,.62,258.29,.35,273.82,.29,274.65,.08,268.89
2019.02.15-07:00,2.31,274.97,2.26,275.20,2.31,276.87,2.25,279.54,2.09,276.51,1.85,277.31,1.61,279.83,1.45,280.82,1.31,276.11,1.32,268.31,1.08,263.18,.78,259.44,.62,261.21,.33,275.97,.24,277.23,.07,269.22
2019.02.15-08:00,2.29,275.17,2.24,275.16,2.26,276.68,2.16,279.36,2.10,277.45,1.88,277.37,1.61,279.42,1.44,279.74,1.32,274.54,1.33,268.75,1.11,262.55,.83,259.08,.63,263.69,.31,275.00,.21,273.85,.06,262.38
2019.02.15-09:00,2.23,275.48,2.17,275.34,2.19,276.35,2.07,278.05,2.07,278.34,1.90,277.39,1.63,279.21,1.45,278.80,1.34,273.62,1.33,269.35,1.14,263.00,.89,260.04,.64,265.50,.31,270.77,.21,263.75,.07,249.38
2019.02.15-10:00,2.19,274.42,2.12,274.55,2.13,274.93,2.01,275.37,2.03,278.02,1.92,277.30,1.64,279.24,1.48,278.25,1.38,273.33,1.34,269.84,1.16,264.28,.93,261.83,.64,266.87,.32,265.13,.22,251.89,.08,238.61
2019.02.15-11:00,2.18,273.18,2.09,272.84,2.08,272.95,2.00,272.39,2.00,276.77,1.94,277.24,1.65,279.33,1.51,278.08,1.42,273.45,1.35,270.17,1.18,265.92,.96,263.89,.63,267.86,.33,259.62,.25,243.04,.10,232.59
2019.02.15-12:00,2.17,272.55,2.05,270.61,2.04,271.08,1.99,269.83,1.96,275.18,1.93,277.50,1.63,279.05,1.53,277.80,1.45,273.62,1.37,270.56,1.19,267.59,.97,266.14,.62,268.96,.34,256.22,.29,239.19,.11,230.81
2019.02.15-13:00,2.18,272.57,2.05,269.24,2.06,269.92,2.03,267.92,1.95,273.42,1.89,277.71,1.62,277.88,1.53,276.77,1.47,273.44,1.39,271.08,1.19,268.70,.96,268.47,.59,270.27,.34,254.50,.31,237.84,.11,230.55
2019.02.15-14:00,2.18,272.28,2.07,268.94,2.12,269.47,2.10,266.48,1.96,271.73,1.83,277.43,1.60,276.11,1.54,275.26,1.48,273.21,1.40,271.82,1.17,269.01,.94,270.99,.55,271.63,.32,253.61,.31,237.58,.11,230.96
2019.02.15-15:00,2.13,271.19,2.06,269.60,2.17,269.75,2.17,265.67,1.96,270.22,1.76,276.48,1.59,274.25,1.55,273.95,1.49,273.29,1.40,272.67,1.15,268.78,.90,273.79,.50,272.67,.30,253.09,.30,238.06,.11,231.80
2019.02.15-16:00,2.08,270.52,2.03,270.47,2.21,271.09,2.23,265.99,1.95,268.88,1.71,275.03,1.59,272.58,1.56,273.28,1.49,273.74,1.39,273.49,1.13,268.46,.85,276.68,.45,272.85,.28,252.41,.29,238.82,.10,232.72
2019.02.15-17:00,2.03,270.49,1.99,270.88,2.21,273.21,2.28,267.70,1.97,268.27,1.70,273.62,1.59,271.32,1.57,273.32,1.48,274.31,1.37,274.08,1.11,268.38,.80,279.11,.41,271.56,.26,251.02,.27,239.29,.09,232.96
2019.02.15-18:00,1.98,271.09,1.98,271.06,2.18,275.29,2.29,270.31,2.00,268.38,1.71,272.48,1.60,270.44,1.57,273.63,1.47,274.70,1.35,274.23,1.11,268.81,.74,280.66,.38,268.98,.25,249.71,.26,240.22,.09,233.34
2019.02.15-19:00,1.93,271.99,1.97,271.21,2.10,276.75,2.26,273.46,2.04,269.40,1.74,272.01,1.62,270.17,1.58,273.95,1.48,274.94,1.32,274.01,1.11,269.86,.70,280.82,.36,264.79,.25,248.17,.26,241.24,.09,233.70
2019.02.15-20:00,1.90,272.50,1.97,271.36,2.00,277.39,2.20,276.72,2.07,271.30,1.78,272.42,1.66,270.58,1.60,274.22,1.49,275.25,1.31,273.67,1.11,271.32,.66,279.29,.36,259.22,.26,246.39,.27,242.03,.09,234.13
2019.02.15-21:00,1.91,272.57,1.98,271.63,1.92,277.21,2.12,279.15,2.09,273.69,1.81,273.28,1.70,271.39,1.63,274.48,1.51,275.70,1.31,273.42,1.10,272.66,.63,276.16,.39,253.95,.29,245.73,.30,243.55,.10,235.79
2019.02.15-22:00,1.95,271.98,2.02,271.43,1.88,275.74,2.04,279.53,2.09,275.66,1.82,273.76,1.74,272.11,1.67,274.70,1.53,276.07,1.31,273.27,1.09,273.42,.62,272.23,.43,251.22,.34,247.68,.34,247.08,.11,239.85
2019.02.15-23:00,1.99,271.26,2.05,271.25,1.86,273.24,1.96,278.04,2.05,276.84,1.82,273.36,1.76,272.38,1.71,274.80,1.54,276.03,1.32,273.08,1.08,273.30,.65,268.78,.49,251.41,.39,251.85,.38,252.35,.12,245.91
2019.02.15-24:00,2.01,271.80,2.05,272.07,1.85,271.40,1.88,275.74,1.97,277.22,1.82,272.32,1.78,272.23,1.74,274.91,1.57,275.57,1.34,272.56,1.10,272.35,.69,266.26,.56,252.86,.44,256.26,.43,257.51,.14,251.92
2019.02.16-01:00,2.01,272.37,2.06,272.80,1.91,270.19,1.89,273.22,1.91,276.27,1.83,271.36,1.80,272.07,1.75,275.09,1.58,275.07,1.35,271.68,1.11,271.18,.73,264.53,.61,254.58,.48,260.34,.45,262.18,.14,257.28
2019.02.16-02:00,2.00,271.75,2.10,272.67,2.05,269.49,1.96,271.21,1.89,274.32,1.85,270.53,1.82,271.96,1.73,274.91,1.57,274.32,1.35,270.47,1.12,270.09,.76,263.40,.64,256.93,.50,264.94,.46,267.42,.14,263.38
2019.02.16-03:00,2.02,269.81,2.15,271.39,2.20,269.67,2.02,269.65,1.87,271.62,1.86,269.36,1.81,271.67,1.68,273.91,1.54,272.95,1.35,269.05,1.11,268.96,.77,262.84,.66,260.29,.50,270.80,.44,274.11,.13,271.40
2019.02.16-04:00,2.06,267.53,2.19,269.78,2.30,270.98,2.08,268.59,1.87,268.75,1.86,268.04,1.77,270.99,1.63,272.15,1.51,271.04,1.34,267.55,1.10,267.53,.78,262.42,.67,264.04,.49,277.12,.42,281.54,.12,280.24
2019.02.16-05:00,2.09,265.85,2.20,268.23,2.32,272.92,2.12,268.28,1.88,266.33,1.86,267.06,1.72,269.95,1.58,270.07,1.48,269.02,1.33,266.13,1.09,265.91,.78,262.03,.67,267.58,.47,283.05,.38,288.76,.11,288.84
2019.02.16-06:00,2.10,264.65,2.20,266.68,2.28,274.38,2.13,268.42,1.92,264.68,1.88,266.67,1.69,268.89,1.56,268.28,1.46,267.52,1.33,265.08,1.08,264.44,.79,261.78,.65,270.66,.43,288.32,.33,295.57,.10,297.06
2019.02.16-07:00,2.12,263.86,2.23,265.83,2.22,274.86,2.15,268.67,1.99,264.09,1.90,266.98,1.68,268.20,1.55,267.22,1.46,266.86,1.34,264.53,1.09,263.23,.79,261.54,.62,272.67,.38,291.97,.27,300.79,.08,303.36
2019.02.16-08:00,2.08,263.17,2.21,265.35,2.13,274.38,2.13,268.78,2.04,264.09,1.91,267.67,1.67,267.94,1.55,266.85,1.47,266.96,1.35,264.61,1.10,262.60,.81,261.49,.59,273.15,.32,291.89,.21,300.30,.06,301.84
2019.02.16-09:00,2.02,262.36,2.15,264.71,1.99,272.50,2.06,268.24,2.05,264.06,1.90,268.26,1.68,267.95,1.55,266.76,1.49,267.32,1.37,265.09,1.13,262.46,.83,261.81,.58,272.39,.29,287.28,.17,289.96,.05,287.30
2019.02.16-10:00,1.99,261.68,2.13,264.12,1.90,268.75,2.01,266.54,2.06,263.90,1.90,268.80,1.68,268.04,1.55,266.65,1.50,267.53,1.39,265.62,1.16,262.53,.86,262.41,.58,271.26,.28,280.28,.16,273.11,.05,268.58
2019.02.16-11:00,1.97,262.35,2.13,264.76,1.87,264.86,2.00,264.82,2.07,264.32,1.89,269.46,1.69,268.03,1.56,266.19,1.50,267.20,1.39,265.73,1.19,262.55,.88,263.10,.58,270.12,.28,272.91,.18,258.62,.06,255.38
2019.02.16-12:00,1.96,264.42,2.14,266.60,1.91,261.97,2.01,263.41,2.06,264.92,1.87,270.05,1.68,267.76,1.56,265.32,1.49,266.31,1.39,265.28,1.21,262.56,.90,263.99,.58,269.59,.30,268.19,.22,252.63,.07,250.51
2019.02.16-13:00,1.97,267.03,2.15,268.83,1.97,260.44,2.04,262.40,2.04,265.01,1.82,270.12,1.66,267.32,1.56,264.48,1.48,265.43,1.38,264.67,1.22,262.68,.92,265.12,.58,269.54,.32,266.14,.25,251.82,.08,250.51
2019.02.16-14:00,1.93,268.88,2.09,270.56,2.00,260.03,2.06,262.17,2.00,264.72,1.76,269.65,1.63,267.08,1.57,264.33,1.48,265.23,1.38,264.40,1.23,262.96,.93,266.39,.57,269.39,.33,265.06,.27,252.55,.09,251.85
2019.02.16-15:00,1.81,268.73,1.97,270.92,1.99,260.03,2.05,262.58,1.95,264.11,1.68,268.34,1.58,266.83,1.56,264.90,1.47,265.75,1.38,264.71,1.22,263.70,.93,268.00,.56,269.59,.32,264.81,.28,254.45,.08,254.34
2019.02.16-16:00,1.70,266.37,1.86,269.77,1.97,260.45,2.03,263.60,1.91,263.76,1.61,266.28,1.53,266.33,1.53,266.01,1.45,266.61,1.37,265.58,1.21,264.95,.91,269.75,.52,270.10,.30,264.49,.27,256.44,.08,257.07
2019.02.16-17:00,1.66,262.77,1.83,267.72,1.99,261.69,2.01,264.75,1.89,263.89,1.56,264.08,1.49,265.95,1.50,267.49,1.42,267.53,1.35,267.03,1.18,266.48,.86,271.36,.47,270.00,.26,262.71,.24,257.46,.07,258.67
2019.02.16-18:00,1.68,258.30,1.85,264.62,2.02,263.24,1.99,265.42,1.88,264.35,1.55,262.27,1.46,265.89,1.46,268.86,1.40,268.27,1.33,268.88,1.14,267.95,.79,272.62,.41,268.75,.22,259.36,.20,258.22,.05,259.54
2019.02.16-19:00,1.74,254.27,1.89,261.19,2.02,264.77,1.98,266.07,1.88,265.69,1.55,261.25,1.43,265.91,1.43,269.46,1.38,268.57,1.31,270.51,1.11,268.93,.72,273.01,.36,265.73,.19,254.81,.17,259.55,.05,260.19
2019.02.16-20:00,1.83,251.26,1.93,257.76,1.98,265.39,1.97,266.73,1.87,267.50,1.56,260.60,1.41,265.58,1.40,268.93,1.37,268.37,1.28,271.35,1.09,269.52,.68,272.66,.34,262.23,.18,252.73,.15,264.26,.04,264.15
2019.02.16-21:00,1.93,249.88,1.99,255.01,1.95,265.04,1.96,267.42,1.85,269.12,1.59,260.44,1.40,265.09,1.40,267.66,1.37,267.95,1.26,271.12,1.08,269.71,.66,271.43,.34,258.94,.19,253.22,.15,270.62,.05,269.28
2019.02.16-22:00,2.01,249.88,2.04,253.62,1.91,264.02,1.94,267.56,1.81,269.64,1.63,260.92,1.42,264.67,1.42,266.25,1.38,267.42,1.25,269.88,1.09,269.48,.66,269.51,.37,256.71,.21,255.63,.16,276.71,.05,274.36
2019.02.16-23:00,2.03,250.93,2.06,253.86,1.88,262.67,1.90,266.71,1.77,268.90,1.67,262.14,1.45,264.37,1.45,265.01,1.39,266.70,1.26,268.01,1.10,268.86,.68,267.37,.41,256.08,.24,259.47,.18,281.97,.06,279.81
2019.02.16-24:00,2.02,253.72,2.04,256.13,1.86,262.03,1.86,265.51,1.76,267.56,1.69,263.83,1.49,264.22,1.49,264.13,1.41,265.79,1.27,265.92,1.12,267.83,.72,265.20,.45,256.42,.28,263.43,.20,285.72,.06,285.35
2019.02.17-01:00,2.01,258.13,2.02,259.55,1.85,262.03,1.84,264.29,1.77,265.97,1.69,265.18,1.52,264.28,1.53,263.94,1.43,264.95,1.29,264.00,1.14,266.50,.76,263.47,.50,257.68,.31,267.91,.21,289.97,.06,292.49
2019.02.17-02:00,2.03,261.74,2.04,262.57,1.88,261.98,1.86,263.24,1.81,264.51,1.69,265.77,1.55,264.80,1.57,264.60,1.46,264.45,1.32,262.45,1.14,265.02,.78,262.23,.52,259.47,.32,273.22,.21,296.67,.06,303.03
2019.02.17-03:00,2.05,263.02,2.06,263.84,1.93,262.01,1.90,262.59,1.85,263.34,1.68,265.41,1.57,265.55,1.60,265.42,1.47,264.12,1.34,261.22,1.15,263.65,.80,261.60,.53,261.99,.32,279.85,.20,305.87,.06,316.59
2019.02.17-04:00,2.08,262.99,2.11,263.49,2.00,262.50,1.94,262.45,1.90,263.03,1.70,264.83,1.58,266.38,1.60,266.06,1.48,264.01,1.36,260.40,1.16,262.53,.80,261.22,.52,264.48,.30,287.21,.18,318.15,.06,331.92
2019.02.17-05:00,2.13,263.42,2.17,263.14,2.06,263.28,1.99,262.82,1.96,263.69,1.73,264.69,1.58,266.80,1.58,266.43,1.48,264.18,1.38,260.04,1.16,261.74,.79,260.86,.49,266.53,.25,295.78,.15,336.80,.05,352.47
2019.02.17-06:00,2.13,265.25,2.17,263.78,2.08,264.17,2.01,263.39,1.98,264.59,1.75,265.32,1.57,266.72,1.55,266.68,1.47,264.53,1.39,260.15,1.17,261.43,.77,260.67,.45,268.08,.21,305.00,.13,359.82,.05,13.94
2019.02.17-07:00,2.06,267.87,2.09,265.57,2.05,265.32,1.97,263.75,1.95,265.18,1.74,266.51,1.55,266.47,1.51,266.82,1.46,264.89,1.39,260.63,1.18,261.63,.76,260.83,.42,269.03,.17,312.20,.11,20.26,.04,30.45
2019.02.17-08:00,2.02,269.71,2.07,267.39,2.06,266.19,1.97,263.78,1.94,265.38,1.74,267.39,1.54,266.20,1.48,266.53,1.46,264.96,1.40,261.21,1.18,262.11,.74,261.43,.39,270.13,.13,321.98,.11,44.78,.04,48.33
2019.02.17-09:00,2.00,270.72,2.06,269.03,2.07,266.73,2.00,264.13,1.94,265.59,1.74,267.83,1.55,266.40,1.46,266.10,1.46,264.90,1.41,261.76,1.18,262.69,.72,261.97,.36,270.22,.08,330.06,.10,70.65,.04,68.09
2019.02.17-10:00,1.87,271.81,1.91,270.26,1.98,266.90,1.94,264.55,1.88,265.36,1.72,267.82,1.55,267.52,1.46,265.99,1.47,265.22,1.43,262.52,1.20,263.56,.73,262.60,.36,268.82,.06,303.98,.07,102.62,.03,93.35
2019.02.17-11:00,1.78,271.47,1.80,268.77,1.93,265.37,1.92,263.77,1.86,263.95,1.73,267.07,1.56,268.27,1.48,266.01,1.49,265.59,1.47,263.38,1.22,264.74,.72,263.59,.35,268.77,.06,272.54,.07,141.45,.02,130.11
2019.02.17-12:00,1.75,270.39,1.77,265.56,1.94,263.26,1.95,262.76,1.91,262.73,1.76,266.53,1.57,268.40,1.51,266.10,1.51,265.87,1.50,264.09,1.22,265.83,.69,264.14,.34,268.92,.07,250.29,.09,169.89,.03,162.71
2019.02.17-13:00,1.72,269.52,1.75,262.99,1.93,261.70,1.98,262.53,1.94,262.51,1.79,266.51,1.58,267.94,1.52,266.07,1.52,265.95,1.52,264.50,1.21,266.49,.67,263.89,.33,268.53,.09,243.55,.10,195.32,.03,192.14
2019.02.17-14:00,1.68,268.57,1.73,261.62,1.92,260.62,1.98,263.06,1.96,262.97,1.79,266.80,1.57,266.83,1.52,265.78,1.52,265.81,1.53,264.74,1.21,266.84,.67,263.12,.33,268.52,.12,247.30,.12,217.76,.04,216.19
2019.02.17-15:00,1.67,267.29,1.73,261.15,1.91,259.97,1.97,264.09,1.96,263.75,1.77,267.31,1.54,265.49,1.50,265.50,1.50,265.64,1.53,265.18,1.21,267.33,.66,262.10,.31,268.77,.13,252.52,.12,234.37,.04,231.71
2019.02.17-16:00,1.69,265.20,1.73,261.54,1.92,259.41,1.96,264.86,1.95,264.29,1.74,267.72,1.52,264.34,1.47,265.48,1.48,265.65,1.51,266.11,1.19,268.47,.64,261.51,.27,270.23,.11,260.34,.09,251.76,.03,247.34
2019.02.17-17:00,1.72,263.38,1.73,262.50,1.93,259.22,1.93,265.34,1.92,264.65,1.69,268.11,1.50,263.97,1.44,265.79,1.45,266.09,1.49,267.50,1.15,270.02,.60,261.24,.22,272.99,.07,277.25,.05,293.30,.01,301.01
2019.02.17-18:00,1.73,263.47,1.73,263.17,1.93,259.97,1.90,265.95,1.88,265.21,1.63,268.68,1.48,264.51,1.40,266.27,1.43,266.91,1.45,269.14,1.09,271.44,.55,260.81,.15,276.38,.04,325.83,.07,5.88,.02,25.63
2019.02.17-19:00,1.73,264.34,1.73,264.46,1.94,261.96,1.86,266.83,1.85,266.07,1.57,269.18,1.47,265.58,1.38,266.65,1.41,267.74,1.41,270.57,1.02,272.29,.51,260.10,.09,280.96,.06,26.43,.13,33.73,.04,44.98
2019.02.17-20:00,1.73,264.79,1.73,265.66,1.94,264.77,1.83,267.69,1.83,267.17,1.53,269.51,1.47,267.03,1.36,267.07,1.39,268.40,1.37,271.50,.96,272.34,.48,259.12,.04,284.23,.10,46.62,.19,45.17,.07,53.65